Year,Month,Day,Hour,Minute,Value (Times are PST for temperature in C)
2015,07,20,00,00,23.20
2015,07,20,00,01,23.20
2015,07,20,00,02,23.20
2015,07,20,00,03,23.20
2015,07,20,00,04,23.20
2015,07,20,00,05,23.20
2015,07,20,00,06,23.20
2015,07,20,00,07,23.10
2015,07,20,00,08,23.10
2015,07,20,00,09,23.20
2015,07,20,00,10,23.30
2015,07,20,00,11,23.50
2015,07,20,00,12,23.60
2015,07,20,00,13,23.70
2015,07,20,00,14,23.80
2015,07,20,00,15,23.80
2015,07,20,00,16,23.80
2015,07,20,00,17,23.70
2015,07,20,00,18,23.60
2015,07,20,00,19,23.50
2015,07,20,00,20,23.40
2015,07,20,00,21,23.40
2015,07,20,00,22,23.30
2015,07,20,00,23,23.30
2015,07,20,00,24,23.20
2015,07,20,00,25,23.20
2015,07,20,00,26,23.30
2015,07,20,00,27,23.40
2015,07,20,00,28,23.50
2015,07,20,00,29,23.50
2015,07,20,00,30,23.60
2015,07,20,00,31,23.60
2015,07,20,00,32,23.60
2015,07,20,00,33,23.60
2015,07,20,00,34,23.50
2015,07,20,00,35,23.50
2015,07,20,00,36,23.50
2015,07,20,00,37,23.50
2015,07,20,00,38,23.50
2015,07,20,00,39,23.50
2015,07,20,00,40,23.50
2015,07,20,00,41,23.40
2015,07,20,00,42,23.40
2015,07,20,00,43,23.30
2015,07,20,00,44,23.30
2015,07,20,00,45,23.30
2015,07,20,00,46,23.20
2015,07,20,00,47,23.20
2015,07,20,00,48,23.20
2015,07,20,00,49,23.20
2015,07,20,00,50,23.20
2015,07,20,00,51,23.20
2015,07,20,00,52,23.20
2015,07,20,00,53,23.20
2015,07,20,00,54,23.20
2015,07,20,00,55,23.10
2015,07,20,00,56,23.10
2015,07,20,00,57,23.10
2015,07,20,00,58,23.00
2015,07,20,00,59,23.00
2015,07,20,01,00,22.90
2015,07,20,01,01,22.90
2015,07,20,01,02,22.80
2015,07,20,01,03,22.80
2015,07,20,01,04,22.80
2015,07,20,01,05,22.70
2015,07,20,01,06,22.70
2015,07,20,01,07,22.70
2015,07,20,01,08,22.70
2015,07,20,01,09,22.60
2015,07,20,01,10,22.70
2015,07,20,01,11,22.70
2015,07,20,01,12,22.70
2015,07,20,01,13,22.70
2015,07,20,01,14,22.70
2015,07,20,01,15,22.70
2015,07,20,01,16,22.60
2015,07,20,01,17,22.50
2015,07,20,01,18,22.40
2015,07,20,01,19,22.30
2015,07,20,01,20,22.20
2015,07,20,01,21,22.10
2015,07,20,01,22,22.10
2015,07,20,01,23,22.00
2015,07,20,01,24,21.90
2015,07,20,01,25,21.80
2015,07,20,01,26,21.80
2015,07,20,01,27,21.70
2015,07,20,01,28,21.60
2015,07,20,01,29,21.50
2015,07,20,01,30,21.40
2015,07,20,01,31,21.40
2015,07,20,01,32,21.30
2015,07,20,01,33,21.30
2015,07,20,01,34,21.20
2015,07,20,01,35,21.20
2015,07,20,01,36,21.20
2015,07,20,01,37,21.20
2015,07,20,01,38,21.10
2015,07,20,01,39,21.10
2015,07,20,01,40,21.10
2015,07,20,01,41,21.00
2015,07,20,01,42,21.00
2015,07,20,01,43,21.00
2015,07,20,01,44,20.90
2015,07,20,01,45,20.90
2015,07,20,01,46,20.80
2015,07,20,01,47,20.70
2015,07,20,01,48,20.60
2015,07,20,01,49,20.50
2015,07,20,01,50,20.40
2015,07,20,01,51,20.30
2015,07,20,01,52,20.30
2015,07,20,01,53,20.20
2015,07,20,01,54,20.20
2015,07,20,01,55,20.10
2015,07,20,01,56,20.10
2015,07,20,01,57,20.10
2015,07,20,01,58,20.10
2015,07,20,01,59,20.10
2015,07,20,02,00,20.00
2015,07,20,02,01,20.00
2015,07,20,02,02,20.00
2015,07,20,02,03,19.90
2015,07,20,02,04,19.90
2015,07,20,02,05,19.90
2015,07,20,02,06,19.80
2015,07,20,02,07,19.80
2015,07,20,02,08,19.80
2015,07,20,02,09,19.80
2015,07,20,02,10,19.80
2015,07,20,02,11,19.70
2015,07,20,02,12,19.70
2015,07,20,02,13,19.60
2015,07,20,02,14,19.60
2015,07,20,02,15,19.50
2015,07,20,02,16,19.50
2015,07,20,02,17,19.40
2015,07,20,02,18,19.40
2015,07,20,02,19,19.40
2015,07,20,02,20,19.40
2015,07,20,02,21,19.40
2015,07,20,02,22,19.30
2015,07,20,02,23,19.30
2015,07,20,02,24,19.30
2015,07,20,02,25,19.20
2015,07,20,02,26,19.20
2015,07,20,02,27,19.10
2015,07,20,02,28,19.00
2015,07,20,02,29,19.00
2015,07,20,02,30,18.90
2015,07,20,02,31,18.90
2015,07,20,02,32,18.80
2015,07,20,02,33,18.90
2015,07,20,02,34,18.90
2015,07,20,02,35,19.00
2015,07,20,02,36,19.10
2015,07,20,02,37,19.10
2015,07,20,02,38,19.20
2015,07,20,02,39,19.20
2015,07,20,02,40,19.30
2015,07,20,02,41,19.30
2015,07,20,02,42,19.30
2015,07,20,02,43,19.30
2015,07,20,02,44,19.30
2015,07,20,02,45,19.30
2015,07,20,02,46,19.40
2015,07,20,02,47,19.40
2015,07,20,02,48,19.40
2015,07,20,02,49,19.50
2015,07,20,02,50,19.50
2015,07,20,02,51,19.50
2015,07,20,02,52,19.60
2015,07,20,02,53,19.60
2015,07,20,02,54,19.60
2015,07,20,02,55,19.60
2015,07,20,02,56,19.60
2015,07,20,02,57,19.60
2015,07,20,02,58,19.60
2015,07,20,02,59,19.60
2015,07,20,03,00,19.60
2015,07,20,03,01,19.50
2015,07,20,03,02,19.50
2015,07,20,03,06,19.40
2015,07,20,03,07,19.40
2015,07,20,03,08,19.30
2015,07,20,03,09,19.30
2015,07,20,03,10,19.30
2015,07,20,03,11,19.30
2015,07,20,03,12,19.20
2015,07,20,03,13,19.20
2015,07,20,03,14,19.20
2015,07,20,03,15,19.20
2015,07,20,03,16,19.10
2015,07,20,03,17,19.10
2015,07,20,03,18,19.00
2015,07,20,03,19,19.00
2015,07,20,03,20,18.90
2015,07,20,03,21,18.90
2015,07,20,03,22,18.90
2015,07,20,03,23,18.90
2015,07,20,03,24,18.80
2015,07,20,03,25,18.80
2015,07,20,03,26,18.70
2015,07,20,03,27,18.70
2015,07,20,03,28,18.60
2015,07,20,03,29,18.60
2015,07,20,03,30,18.50
2015,07,20,03,31,18.40
2015,07,20,03,32,18.40
2015,07,20,03,33,18.30
2015,07,20,03,34,18.30
2015,07,20,03,35,18.30
2015,07,20,03,36,18.20
2015,07,20,03,37,18.20
2015,07,20,03,38,18.10
2015,07,20,03,39,18.10
2015,07,20,03,40,18.10
2015,07,20,03,41,18.00
2015,07,20,03,42,18.00
2015,07,20,03,43,17.90
2015,07,20,03,44,17.90
2015,07,20,03,45,17.80
2015,07,20,03,46,17.80
2015,07,20,03,47,17.80
2015,07,20,03,48,17.70
2015,07,20,03,49,17.70
2015,07,20,03,50,17.70
2015,07,20,03,51,17.70
2015,07,20,03,52,17.70
2015,07,20,03,53,17.70
2015,07,20,03,54,17.70
2015,07,20,03,55,17.70
2015,07,20,03,56,17.70
2015,07,20,03,57,17.60
2015,07,20,03,58,17.60
2015,07,20,03,59,17.60
2015,07,20,04,00,17.60
2015,07,20,04,01,17.60
2015,07,20,04,02,17.50
2015,07,20,04,03,17.50
2015,07,20,04,04,17.50
2015,07,20,04,05,17.40
2015,07,20,04,06,17.40
2015,07,20,04,07,17.40
2015,07,20,04,08,17.40
2015,07,20,04,09,17.30
2015,07,20,04,10,17.30
2015,07,20,04,11,17.30
2015,07,20,04,12,17.20
2015,07,20,04,13,17.20
2015,07,20,04,14,17.20
2015,07,20,04,15,17.20
2015,07,20,04,16,17.10
2015,07,20,04,17,17.10
2015,07,20,04,18,17.10
2015,07,20,04,19,17.00
2015,07,20,04,20,17.00
2015,07,20,04,21,17.00
2015,07,20,04,22,16.90
2015,07,20,04,23,16.90
2015,07,20,04,24,16.90
2015,07,20,04,25,16.80
2015,07,20,04,26,16.80
2015,07,20,04,27,16.80
2015,07,20,04,28,16.80
2015,07,20,04,29,16.80
2015,07,20,04,30,16.70
2015,07,20,04,31,16.70
2015,07,20,04,32,16.60
2015,07,20,04,33,16.60
2015,07,20,04,34,16.60
2015,07,20,04,35,16.50
2015,07,20,04,36,16.50
2015,07,20,04,37,16.40
2015,07,20,04,38,16.40
2015,07,20,04,39,16.40
2015,07,20,04,40,16.40
2015,07,20,04,41,16.40
2015,07,20,04,42,16.30
2015,07,20,04,43,16.30
2015,07,20,04,44,16.30
2015,07,20,04,45,16.30
2015,07,20,04,46,16.30
2015,07,20,04,47,16.30
2015,07,20,04,48,16.30
2015,07,20,04,49,16.30
2015,07,20,04,50,16.30
2015,07,20,04,51,16.30
2015,07,20,04,52,16.30
2015,07,20,04,53,16.30
2015,07,20,04,54,16.30
2015,07,20,06,18,15.10
2015,07,20,06,19,15.10
2015,07,20,06,20,15.20
2015,07,20,06,21,15.20
2015,07,20,06,22,15.20
2015,07,20,06,23,15.20
2015,07,20,06,24,15.20
2015,07,20,06,25,15.20
2015,07,20,06,26,15.30
2015,07,20,06,27,15.30
2015,07,20,06,28,15.30
2015,07,20,06,29,15.40
2015,07,20,06,30,15.40
2015,07,20,06,31,15.40
2015,07,20,06,32,15.40
2015,07,20,06,33,15.50
2015,07,20,06,34,15.60
2015,07,20,06,35,15.60
2015,07,20,06,36,15.70
2015,07,20,06,37,15.70
2015,07,20,06,38,15.80
2015,07,20,06,39,15.90
2015,07,20,06,40,16.00
2015,07,20,06,41,16.10
2015,07,20,06,42,16.20
2015,07,20,06,43,16.30
2015,07,20,06,44,16.40
2015,07,20,06,45,16.50
2015,07,20,06,46,16.60
2015,07,20,06,47,16.70
2015,07,20,06,48,16.80
2015,07,20,06,49,16.80
2015,07,20,06,50,16.90
2015,07,20,06,51,17.00
2015,07,20,06,52,17.10
2015,07,20,06,53,17.20
2015,07,20,06,54,17.30
2015,07,20,06,55,17.40
2015,07,20,06,56,17.50
2015,07,20,06,57,17.60
2015,07,20,06,58,17.70
2015,07,20,06,59,17.80
2015,07,20,07,00,17.90
2015,07,20,07,01,17.90
2015,07,20,07,02,17.90
2015,07,20,07,03,18.00
2015,07,20,07,04,18.00
2015,07,20,07,05,18.00
2015,07,20,07,06,18.00
2015,07,20,07,07,18.00
2015,07,20,07,08,18.10
2015,07,20,07,09,18.10
2015,07,20,07,10,18.00
2015,07,20,07,11,18.00
2015,07,20,07,12,18.00
2015,07,20,07,13,17.90
2015,07,20,07,14,17.90
2015,07,20,07,15,17.90
2015,07,20,07,16,17.90
2015,07,20,07,17,17.90
2015,07,20,07,18,17.90
2015,07,20,07,19,18.00
2015,07,20,07,20,18.00
2015,07,20,07,21,18.10
2015,07,20,07,22,18.20
2015,07,20,07,23,18.20
2015,07,20,07,24,18.20
2015,07,20,07,25,18.30
2015,07,20,07,26,18.40
2015,07,20,07,27,18.40
2015,07,20,07,28,18.50
2015,07,20,07,29,18.50
2015,07,20,07,30,18.60
2015,07,20,07,31,18.60
2015,07,20,07,32,18.70
2015,07,20,07,33,18.70
2015,07,20,07,34,18.70
2015,07,20,07,35,18.70
2015,07,20,07,36,18.80
2015,07,20,07,37,18.90
2015,07,20,07,38,18.90
2015,07,20,07,39,18.90
2015,07,20,07,40,18.90
2015,07,20,07,41,18.90
2015,07,20,07,42,19.00
2015,07,20,07,43,19.00
2015,07,20,07,44,19.10
2015,07,20,07,45,19.00
2015,07,20,07,46,19.10
2015,07,20,07,47,19.10
2015,07,20,07,48,19.10
2015,07,20,07,49,19.20
2015,07,20,07,50,19.30
2015,07,20,07,51,19.30
2015,07,20,07,52,19.40
2015,07,20,07,53,19.40
2015,07,20,07,54,19.40
2015,07,20,07,55,19.40
2015,07,20,07,56,19.40
2015,07,20,07,57,19.40
2015,07,20,07,58,19.50
2015,07,20,07,59,19.50
2015,07,20,08,00,19.50
2015,07,20,08,01,19.50
2015,07,20,08,02,19.50
2015,07,20,08,03,19.60
2015,07,20,08,04,19.70
2015,07,20,08,05,19.70
2015,07,20,08,06,19.80
2015,07,20,08,07,19.80
2015,07,20,08,08,19.80
2015,07,20,08,09,19.80
2015,07,20,08,10,19.80
2015,07,20,08,11,19.90
2015,07,20,08,12,19.90
2015,07,20,08,13,19.90
2015,07,20,08,14,19.90
2015,07,20,08,15,19.90
2015,07,20,08,16,19.80
2015,07,20,08,17,19.90
2015,07,20,08,18,20.00
2015,07,20,08,19,20.20
2015,07,20,08,20,20.30
2015,07,20,08,21,20.30
2015,07,20,08,22,20.30
2015,07,20,08,23,20.30
2015,07,20,08,24,20.30
2015,07,20,08,25,20.30
2015,07,20,08,26,20.20
2015,07,20,08,27,20.20
2015,07,20,08,28,20.30
2015,07,20,08,29,20.30
2015,07,20,08,30,20.30
2015,07,20,08,31,20.40
2015,07,20,08,32,20.50
2015,07,20,08,33,20.60
2015,07,20,08,34,20.70
2015,07,20,08,35,20.80
2015,07,20,08,36,20.90
2015,07,20,08,37,21.00
2015,07,20,08,38,21.00
2015,07,20,08,39,21.10
2015,07,20,08,40,21.20
2015,07,20,08,41,21.20
2015,07,20,08,42,21.20
2015,07,20,08,43,21.20
2015,07,20,08,44,21.00
2015,07,20,08,45,20.90
2015,07,20,08,46,20.80
2015,07,20,08,47,20.60
2015,07,20,08,48,20.60
2015,07,20,08,49,20.60
2015,07,20,08,50,20.60
2015,07,20,08,51,20.60
2015,07,20,08,52,20.70
2015,07,20,08,53,20.70
2015,07,20,08,54,20.80
2015,07,20,08,55,20.90
2015,07,20,08,56,21.00
2015,07,20,08,57,21.10
2015,07,20,08,58,21.10
2015,07,20,08,59,21.10
2015,07,20,09,00,21.20
2015,07,20,09,01,21.10
2015,07,20,09,02,21.10
2015,07,20,09,03,21.10
2015,07,20,09,04,21.10
2015,07,20,09,05,21.20
2015,07,20,09,06,21.20
2015,07,20,09,07,21.30
2015,07,20,09,08,21.30
2015,07,20,09,09,21.30
2015,07,20,09,10,21.20
2015,07,20,09,11,21.30
2015,07,20,09,12,21.40
2015,07,20,09,13,21.50
2015,07,20,09,14,21.40
2015,07,20,09,15,21.30
2015,07,20,09,16,21.20
2015,07,20,09,17,21.20
2015,07,20,09,18,21.10
2015,07,20,09,19,21.20
2015,07,20,09,20,21.30
2015,07,20,09,21,21.30
2015,07,20,09,22,21.30
2015,07,20,09,23,21.30
2015,07,20,09,24,21.30
2015,07,20,09,25,21.30
2015,07,20,09,26,21.40
2015,07,20,09,27,21.60
2015,07,20,09,28,21.80
2015,07,20,09,29,22.00
2015,07,20,09,30,22.10
2015,07,20,09,31,22.20
2015,07,20,09,32,22.20
2015,07,20,09,33,22.10
2015,07,20,09,34,22.00
2015,07,20,09,35,22.00
2015,07,20,09,36,22.00
2015,07,20,09,37,22.00
2015,07,20,09,38,22.10
2015,07,20,09,39,22.20
2015,07,20,09,40,22.30
2015,07,20,09,41,22.30
2015,07,20,09,42,22.30
2015,07,20,09,43,22.30
2015,07,20,09,44,22.30
2015,07,20,09,45,22.20
2015,07,20,09,46,22.20
2015,07,20,09,47,22.20
2015,07,20,09,48,22.20
2015,07,20,09,49,22.30
2015,07,20,09,50,22.40
2015,07,20,09,51,22.50
2015,07,20,09,52,22.50
2015,07,20,09,53,22.40
2015,07,20,09,54,22.50
2015,07,20,09,55,22.50
2015,07,20,09,56,22.40
2015,07,20,09,57,22.20
2015,07,20,09,58,22.10
2015,07,20,09,59,22.00
2015,07,20,10,00,21.90
2015,07,20,10,01,22.00
2015,07,20,10,02,21.90
2015,07,20,10,03,21.90
2015,07,20,10,04,22.00
2015,07,20,10,05,22.00
2015,07,20,10,06,22.10
2015,07,20,10,07,22.20
2015,07,20,10,08,22.30
2015,07,20,10,09,22.30
2015,07,20,10,10,22.30
2015,07,20,10,11,22.20
2015,07,20,10,12,22.20
2015,07,20,10,13,22.30
2015,07,20,10,14,22.30
2015,07,20,10,15,22.30
2015,07,20,10,16,22.20
2015,07,20,10,17,22.10
2015,07,20,10,18,22.10
2015,07,20,10,19,22.10
2015,07,20,10,20,22.00
2015,07,20,10,21,21.90
2015,07,20,10,22,21.70
2015,07,20,10,23,21.70
2015,07,20,10,24,21.70
2015,07,20,10,25,21.80
2015,07,20,10,26,21.90
2015,07,20,10,27,22.00
2015,07,20,10,28,22.20
2015,07,20,10,29,22.50
2015,07,20,10,30,22.60
2015,07,20,10,31,22.70
2015,07,20,10,32,22.70
2015,07,20,10,33,22.70
2015,07,20,10,34,22.80
2015,07,20,10,35,22.80
2015,07,20,10,36,22.90
2015,07,20,10,37,23.00
2015,07,20,10,38,23.10
2015,07,20,10,39,23.10
2015,07,20,10,40,23.10
2015,07,20,10,41,23.10
2015,07,20,10,42,23.10
2015,07,20,10,43,23.10
2015,07,20,10,44,23.10
2015,07,20,10,45,23.10
2015,07,20,10,46,23.10
2015,07,20,10,47,23.10
2015,07,20,10,48,23.10
2015,07,20,10,49,23.10
2015,07,20,10,50,23.20
2015,07,20,10,51,23.30
2015,07,20,10,52,23.40
2015,07,20,10,53,23.60
2015,07,20,10,54,23.70
2015,07,20,10,55,23.90
2015,07,20,10,56,24.00
2015,07,20,10,57,23.90
2015,07,20,10,58,24.00
2015,07,20,10,59,24.10
2015,07,20,11,00,24.20
2015,07,20,11,01,24.30
2015,07,20,11,02,24.40
2015,07,20,11,03,24.40
2015,07,20,11,04,24.40
2015,07,20,11,05,24.50
2015,07,20,11,06,24.60
2015,07,20,11,07,24.70
2015,07,20,11,08,24.90
2015,07,20,11,09,25.00
2015,07,20,11,10,25.10
2015,07,20,11,11,25.20
2015,07,20,11,12,25.10
2015,07,20,11,13,25.00
2015,07,20,11,14,24.90
2015,07,20,11,15,24.80
2015,07,20,11,16,24.70
2015,07,20,11,17,24.70
2015,07,20,11,18,24.70
2015,07,20,11,19,24.70
2015,07,20,11,20,24.80
2015,07,20,11,21,24.80
2015,07,20,11,22,24.90
2015,07,20,11,23,25.00
2015,07,20,11,24,25.10
2015,07,20,11,25,25.10
2015,07,20,11,26,25.10
2015,07,20,11,27,24.90
2015,07,20,11,28,24.80
2015,07,20,11,29,24.70
2015,07,20,11,30,24.50
2015,07,20,11,31,24.30
2015,07,20,11,32,24.20
2015,07,20,11,33,24.10
2015,07,20,11,34,24.10
2015,07,20,11,35,24.10
2015,07,20,11,36,24.10
2015,07,20,11,37,24.20
2015,07,20,11,38,24.20
2015,07,20,11,39,24.20
2015,07,20,11,40,24.20
2015,07,20,11,41,24.10
2015,07,20,11,42,24.10
2015,07,20,11,43,24.00
2015,07,20,11,44,24.00
2015,07,20,11,45,23.90
2015,07,20,11,46,23.90
2015,07,20,11,47,23.90
2015,07,20,11,48,23.90
2015,07,20,11,49,23.90
2015,07,20,11,50,24.00
2015,07,20,11,51,24.10
2015,07,20,11,52,24.10
2015,07,20,11,53,24.00
2015,07,20,11,54,23.80
2015,07,20,11,55,23.70
2015,07,20,11,56,23.60
2015,07,20,11,57,23.50
2015,07,20,11,58,23.40
2015,07,20,11,59,23.40
2015,07,20,12,00,23.40
2015,07,20,12,01,23.50
2015,07,20,12,02,23.50
2015,07,20,12,03,23.60
2015,07,20,12,04,23.60
2015,07,20,12,05,23.40
2015,07,20,12,06,23.30
2015,07,20,12,07,23.20
2015,07,20,12,08,23.10
2015,07,20,12,09,23.20
2015,07,20,12,10,23.30
2015,07,20,12,11,23.40
2015,07,20,12,12,23.50
2015,07,20,12,13,23.60
2015,07,20,12,14,23.80
2015,07,20,12,15,24.00
2015,07,20,12,16,24.20
2015,07,20,12,17,24.30
2015,07,20,12,18,24.40
2015,07,20,12,19,24.60
2015,07,20,12,20,24.70
2015,07,20,12,21,24.80
2015,07,20,12,22,24.80
2015,07,20,12,23,24.80
2015,07,20,12,24,24.90
2015,07,20,12,25,24.90
2015,07,20,12,26,24.70
2015,07,20,12,27,24.60
2015,07,20,12,28,24.60
2015,07,20,12,29,24.60
2015,07,20,12,30,24.70
2015,07,20,12,31,24.70
2015,07,20,12,32,24.80
2015,07,20,12,33,24.90
2015,07,20,12,34,25.00
2015,07,20,12,35,25.10
2015,07,20,12,36,25.20
2015,07,20,12,37,25.30
2015,07,20,12,38,25.30
2015,07,20,12,39,25.40
2015,07,20,12,40,25.50
2015,07,20,12,41,25.50
2015,07,20,12,42,25.60
2015,07,20,12,43,25.60
2015,07,20,12,44,25.50
2015,07,20,12,45,25.40
2015,07,20,12,46,25.30
2015,07,20,12,47,25.30
2015,07,20,12,48,25.20
2015,07,20,12,49,25.10
2015,07,20,12,50,24.90
2015,07,20,12,51,24.70
2015,07,20,12,52,24.60
2015,07,20,12,53,24.60
2015,07,20,12,54,24.50
2015,07,20,12,55,24.50
2015,07,20,12,56,24.50
2015,07,20,12,57,24.40
2015,07,20,12,58,24.40
2015,07,20,12,59,24.20
2015,07,20,13,00,24.10
2015,07,20,13,01,24.10
2015,07,20,13,02,24.10
2015,07,20,13,03,24.10
2015,07,20,13,04,24.30
2015,07,20,13,05,24.40
2015,07,20,13,06,24.60
2015,07,20,13,07,24.70
2015,07,20,13,08,24.90
2015,07,20,13,09,25.00
2015,07,20,13,10,25.10
2015,07,20,13,11,25.10
2015,07,20,13,12,25.10
2015,07,20,13,13,25.00
2015,07,20,13,14,24.90
2015,07,20,13,15,24.70
2015,07,20,13,16,24.60
2015,07,20,13,17,24.40
2015,07,20,13,18,24.30
2015,07,20,13,19,24.20
2015,07,20,13,20,24.20
2015,07,20,13,21,24.10
2015,07,20,13,22,24.10
2015,07,20,13,23,24.10
2015,07,20,13,24,24.10
2015,07,20,13,25,24.20
2015,07,20,13,26,24.20
2015,07,20,13,27,24.30
2015,07,20,13,28,24.20
2015,07,20,13,29,24.10
2015,07,20,13,30,24.10
2015,07,20,13,31,24.10
2015,07,20,13,32,24.20
2015,07,20,13,33,24.30
2015,07,20,13,34,24.30
2015,07,20,13,35,24.30
2015,07,20,13,36,24.30
2015,07,20,13,37,24.10
2015,07,20,13,38,23.90
2015,07,20,13,39,23.70
2015,07,20,13,40,23.50
2015,07,20,13,41,23.30
2015,07,20,13,42,23.20
2015,07,20,13,43,23.20
2015,07,20,13,44,23.10
2015,07,20,13,45,23.10
2015,07,20,13,46,23.00
2015,07,20,13,47,22.90
2015,07,20,13,48,22.90
2015,07,20,13,49,22.80
2015,07,20,13,50,22.80
2015,07,20,13,51,22.70
2015,07,20,13,52,22.50
2015,07,20,13,53,22.40
2015,07,20,13,54,22.40
2015,07,20,13,55,22.50
2015,07,20,13,56,22.60
2015,07,20,13,57,22.60
2015,07,20,13,58,22.70
2015,07,20,13,59,22.80
2015,07,20,14,00,22.80
2015,07,20,14,01,22.80
2015,07,20,14,02,22.80
2015,07,20,14,03,22.80
2015,07,20,14,04,22.80
2015,07,20,14,05,22.80
2015,07,20,14,06,22.90
2015,07,20,14,07,23.00
2015,07,20,14,08,23.00
2015,07,20,14,09,23.00
2015,07,20,14,10,23.00
2015,07,20,14,11,23.10
2015,07,20,14,12,23.20
2015,07,20,14,13,23.20
2015,07,20,14,14,23.10
2015,07,20,14,15,23.00
2015,07,20,14,16,22.90
2015,07,20,14,17,22.80
2015,07,20,14,18,22.80
2015,07,20,14,19,22.80
2015,07,20,14,20,22.80
2015,07,20,14,21,22.80
2015,07,20,14,22,22.80
2015,07,20,14,23,22.80
2015,07,20,14,24,22.80
2015,07,20,14,25,22.80
2015,07,20,14,26,22.90
2015,07,20,14,27,22.90
2015,07,20,14,28,23.00
2015,07,20,14,29,23.10
2015,07,20,14,30,23.20
2015,07,20,14,31,23.20
2015,07,20,14,32,23.20
2015,07,20,14,33,23.20
2015,07,20,14,34,23.20
2015,07,20,14,35,23.20
2015,07,20,14,36,23.30
2015,07,20,14,37,23.40
2015,07,20,14,38,23.40
2015,07,20,14,39,23.40
2015,07,20,14,40,23.50
2015,07,20,14,41,23.60
2015,07,20,14,42,23.70
2015,07,20,14,43,23.80
2015,07,20,14,44,24.00
2015,07,20,14,45,24.20
2015,07,20,14,46,24.40
2015,07,20,14,47,24.60
2015,07,20,14,48,24.60
2015,07,20,14,49,24.60
2015,07,20,14,50,24.60
2015,07,20,14,51,24.50
2015,07,20,14,52,24.50
2015,07,20,14,53,24.50
2015,07,20,14,54,24.60
2015,07,20,14,55,24.60
2015,07,20,14,56,24.60
2015,07,20,14,57,24.60
2015,07,20,14,58,24.60
2015,07,20,14,59,24.60
2015,07,20,15,00,24.70
2015,07,20,15,01,24.80
2015,07,20,15,02,24.90
2015,07,20,15,03,25.00
2015,07,20,15,04,25.10
2015,07,20,15,05,25.20
2015,07,20,15,06,25.40
2015,07,20,15,07,25.50
2015,07,20,15,08,25.60
2015,07,20,15,09,25.60
2015,07,20,15,10,25.70
2015,07,20,15,11,25.70
2015,07,20,15,12,25.70
2015,07,20,15,13,25.70
2015,07,20,15,14,25.60
2015,07,20,15,15,25.60
2015,07,20,15,16,25.50
2015,07,20,15,17,25.50
2015,07,20,15,18,25.40
2015,07,20,15,19,25.40
2015,07,20,15,20,25.40
2015,07,20,15,21,25.50
2015,07,20,15,22,25.60
2015,07,20,15,23,25.80
2015,07,20,15,24,26.00
2015,07,20,15,25,26.20
2015,07,20,15,26,26.40
2015,07,20,15,27,26.60
2015,07,20,15,28,26.70
2015,07,20,15,29,26.80
2015,07,20,15,30,26.90
2015,07,20,15,31,26.90
2015,07,20,15,32,26.90
2015,07,20,15,33,26.90
2015,07,20,15,34,26.80
2015,07,20,15,35,26.80
2015,07,20,15,36,26.80
2015,07,20,15,37,26.80
2015,07,20,15,38,26.90
2015,07,20,15,39,26.90
2015,07,20,15,40,27.00
2015,07,20,15,41,27.00
2015,07,20,15,42,27.00
2015,07,20,15,43,27.00
2015,07,20,15,44,27.00
2015,07,20,15,45,27.10
2015,07,20,15,46,27.20
2015,07,20,15,47,27.40
2015,07,20,15,48,27.40
2015,07,20,15,49,27.50
2015,07,20,15,50,27.50
2015,07,20,15,51,27.60
2015,07,20,15,52,27.60
2015,07,20,15,53,27.60
2015,07,20,15,54,27.60
2015,07,20,15,55,27.60
2015,07,20,15,56,27.60
2015,07,20,15,57,27.70
2015,07,20,15,58,27.70
2015,07,20,15,59,27.80
2015,07,20,16,00,27.80
2015,07,20,16,01,27.80
2015,07,20,16,02,27.80
2015,07,20,16,03,27.80
2015,07,20,16,04,27.90
2015,07,20,16,05,27.80
2015,07,20,16,06,27.90
2015,07,20,16,07,27.80
2015,07,20,16,08,27.80
2015,07,20,16,09,27.90
2015,07,20,16,10,27.90
2015,07,20,16,11,27.90
2015,07,20,16,12,27.90
2015,07,20,16,13,27.80
2015,07,20,16,14,27.70
2015,07,20,16,15,27.50
2015,07,20,16,16,27.30
2015,07,20,16,17,27.10
2015,07,20,16,18,27.00
2015,07,20,16,19,26.90
2015,07,20,16,20,26.90
2015,07,20,16,21,26.80
2015,07,20,16,22,26.70
2015,07,20,16,23,26.70
2015,07,20,16,24,26.70
2015,07,20,16,25,26.70
2015,07,20,16,26,26.80
2015,07,20,16,27,26.70
2015,07,20,16,28,26.70
2015,07,20,16,29,26.70
2015,07,20,16,30,26.70
2015,07,20,16,31,26.60
2015,07,20,16,32,26.60
2015,07,20,16,33,26.60
2015,07,20,16,34,26.60
2015,07,20,16,35,26.60
2015,07,20,16,36,26.50
2015,07,20,16,37,26.40
2015,07,20,16,38,26.30
2015,07,20,16,39,26.30
2015,07,20,16,40,26.20
2015,07,20,16,41,26.20
2015,07,20,16,42,26.20
2015,07,20,16,43,26.20
2015,07,20,16,44,26.20
2015,07,20,16,45,26.20
2015,07,20,16,46,26.20
2015,07,20,16,47,26.20
2015,07,20,16,48,26.20
2015,07,20,16,49,26.20
2015,07,20,16,50,26.20
2015,07,20,16,51,26.10
2015,07,20,16,52,26.00
2015,07,20,16,53,25.90
2015,07,20,16,54,25.90
2015,07,20,16,55,25.90
2015,07,20,16,56,25.80
2015,07,20,16,57,25.80
2015,07,20,16,58,25.80
2015,07,20,16,59,25.80
2015,07,20,17,00,25.80
2015,07,20,17,01,25.70
2015,07,20,17,02,25.60
2015,07,20,17,03,25.50
2015,07,20,17,04,25.50
2015,07,20,17,05,25.40
2015,07,20,17,06,25.30
2015,07,20,17,07,25.30
2015,07,20,17,08,25.20
2015,07,20,17,09,25.20
2015,07,20,17,10,25.20
2015,07,20,17,11,25.20
2015,07,20,17,12,25.20
2015,07,20,17,13,25.10
2015,07,20,17,14,25.10
2015,07,20,17,15,25.10
2015,07,20,17,16,25.10
2015,07,20,17,17,25.10
2015,07,20,17,18,25.00
2015,07,20,17,19,24.90
2015,07,20,17,20,24.90
2015,07,20,17,21,24.90
2015,07,20,17,22,24.90
2015,07,20,17,23,24.90
2015,07,20,17,24,24.80
2015,07,20,17,25,24.80
2015,07,20,17,26,24.70
2015,07,20,17,27,24.70
2015,07,20,17,28,24.70
2015,07,20,17,29,24.60
2015,07,20,17,30,24.60
2015,07,20,17,31,24.50
2015,07,20,17,32,24.50
2015,07,20,17,33,24.50
2015,07,20,17,34,24.50
2015,07,20,17,35,24.50
2015,07,20,17,36,24.60
2015,07,20,17,37,24.60
2015,07,20,17,38,24.60
2015,07,20,17,39,24.70
2015,07,20,17,40,24.60
2015,07,20,17,41,24.60
2015,07,20,17,42,24.50
2015,07,20,17,43,24.40
2015,07,20,17,44,24.40
2015,07,20,17,45,24.30
2015,07,20,17,46,24.30
2015,07,20,17,47,24.30
2015,07,20,17,48,24.30
2015,07,20,17,49,24.30
2015,07,20,17,50,24.20
2015,07,20,17,51,24.20
2015,07,20,17,52,24.20
2015,07,20,17,53,24.10
2015,07,20,17,54,24.10
2015,07,20,17,55,24.00
2015,07,20,17,56,24.00
2015,07,20,17,57,24.00
2015,07,20,17,58,24.00
2015,07,20,17,59,24.00
2015,07,20,18,00,23.90
2015,07,20,18,01,23.90
2015,07,20,18,02,23.90
2015,07,20,18,03,23.80
2015,07,20,18,04,23.80
2015,07,20,18,05,23.70
2015,07,20,18,06,23.70
2015,07,20,18,07,23.70
2015,07,20,18,08,23.70
2015,07,20,18,09,23.70
2015,07,20,18,10,23.60
2015,07,20,18,11,23.60
2015,07,20,18,12,23.50
2015,07,20,18,13,23.40
2015,07,20,18,14,23.40
2015,07,20,18,15,23.30
2015,07,20,18,16,23.30
2015,07,20,18,17,23.30
2015,07,20,18,18,23.30
2015,07,20,18,19,23.20
2015,07,20,18,20,23.20
2015,07,20,18,21,23.20
2015,07,20,18,22,23.20
2015,07,20,18,23,23.20
2015,07,20,18,24,23.10
2015,07,20,18,25,23.10
2015,07,20,18,26,23.10
2015,07,20,18,27,23.10
2015,07,20,18,28,23.10
2015,07,20,18,29,23.20
2015,07,20,18,30,23.20
2015,07,20,18,31,23.20
2015,07,20,18,32,23.20
2015,07,20,18,33,23.20
2015,07,20,18,34,23.20
2015,07,20,18,35,23.10
2015,07,20,18,36,23.10
2015,07,20,18,37,23.00
2015,07,20,18,38,23.00
2015,07,20,18,39,22.90
2015,07,20,18,40,22.90
2015,07,20,18,41,22.90
2015,07,20,18,42,22.90
2015,07,20,18,43,22.90
2015,07,20,18,44,22.90
2015,07,20,18,45,22.90